Santa Fe, NM

6:41 AM MDT on March 28, 2017 (GMT -0600)
Santa Fe Municipal

Weather History for KSAF - October, 2012

Change the Weather History Date:

Thursday, October 25, 2012

  Actual Average Record
Temperature  
Mean Temperature 47 °F -  
Max Temperature 57 °F 57 °F 79 °F (2014)
Min Temperature 37 °F 29 °F 19 °F (1980)
Degree Days  
Heating Degree Days 18    
Moisture  
Dew Point 10 °F    
Average Humidity 25    
Maximum Humidity 55    
Minimum Humidity 10    
Precipitation  
Precipitation 0.00 in - - ()
Sea Level Pressure  
Sea Level Pressure 29.93 in    
Wind  
Wind Speed 10 mph (West)    
Max Wind Speed 21 mph    
Max Gust Speed 30 mph    
Visibility 10 miles    
Events      
Averages and records for this station are not official NWS values.
T = Trace of Precipitation, MM = Missing Value Source: NWS Daily Summary

Daily Weather History Graph

Daily Weather History Graph

Search for Another Location

Airport or City:

Trip Planner

Search our weather history database for the weather conditions in past years. The results will help you decide how hot, cold, wet, or windy it might be!

Date:

Astronomy

Oct. 25, 2012 Rise Set
Actual Time 7:20 AM MDT 6:15 PM MDT
Civil Twilight 6:54 AM MDT 6:42 PM MDT
Nautical Twilight 6:24 AM MDT 7:11 PM MDT
Astronomical Twilight 5:54 AM MDT 7:41 PM MDT
Moon 3:57 PM MDT (10/25) 3:26 AM MDT (10/25)
Length of Visible Light 11h 47m
Length of Day
10h 55m
Waxing Gibbous, 85% of the Moon is Illuminated
Oct 25
Waxing Gibbous
Oct 29
Full
Nov 6
Last Quarter
Nov 13
New
Nov 20
First Quarter

Hourly Weather History & Observations

Time (MDT) Temp. Windchill Dew Point Humidity Pressure Visibility Wind Dir Wind Speed Gust Speed Precip Events Conditions
12:53 AM 48.9 °F - 16.0 °F 27% 29.75 in 10.0 mi West 5.8 mph - N/A   Clear
1:53 AM 44.1 °F 39.0 °F 16.0 °F 32% 29.80 in 10.0 mi West 9.2 mph - N/A   Clear
2:53 AM 44.1 °F 39.5 °F 18.0 °F 35% 29.81 in 10.0 mi West 8.1 mph - N/A   Clear
3:53 AM 42.1 °F 38.4 °F 16.0 °F 35% 29.84 in 10.0 mi WNW 5.8 mph - N/A   Clear
4:53 AM 39.9 °F 32.9 °F 14.0 °F 35% 29.86 in 10.0 mi North 11.5 mph - N/A   Clear
5:53 AM 37.9 °F 32.1 °F 12.9 °F 36% 29.90 in 10.0 mi North 8.1 mph - N/A   Clear
6:53 AM 37.0 °F 29.8 °F 10.9 °F 34% 29.94 in 10.0 mi NNW 10.4 mph - N/A   Clear
7:53 AM 37.9 °F 30.5 °F 9.0 °F 30% 29.96 in 10.0 mi NNW 11.5 mph - N/A   Clear
8:53 AM 46.0 °F 41.0 °F 6.1 °F 20% 29.95 in 10.0 mi NNW 10.4 mph - N/A   Clear
9:53 AM 48.9 °F - 3.0 °F 15% 29.96 in 10.0 mi North 11.5 mph - N/A   Clear
10:53 AM 51.1 °F - 1.9 °F 13% 29.94 in 10.0 mi North 8.1 mph - N/A   Clear
11:53 AM 53.1 °F - 1.0 °F 12% 29.94 in 10.0 mi Variable 6.9 mph - N/A   Clear
12:53 PM 54.0 °F - 7.0 °F 15% 29.93 in 10.0 mi WSW 13.8 mph 21.9 mph N/A   Clear
1:53 PM 55.9 °F - 5.0 °F 13% 29.92 in 10.0 mi SW 15.0 mph 20.7 mph N/A   Clear
2:53 PM 57.9 °F - 1.0 °F 10% 29.90 in 10.0 mi SW 16.1 mph 23.0 mph N/A   Clear
3:53 PM 57.9 °F - 3.0 °F 11% 29.90 in 10.0 mi WSW 20.7 mph 29.9 mph N/A   Clear
4:53 PM 57.0 °F - 3.9 °F 12% 29.93 in 10.0 mi WSW 16.1 mph - N/A   Clear
5:53 PM 53.1 °F - 3.9 °F 14% 29.96 in 10.0 mi SSW 9.2 mph - N/A   Clear
6:53 PM 48.0 °F - 5.0 °F 17% 29.99 in 10.0 mi SE 5.8 mph - N/A   Clear
7:53 PM 46.0 °F 44.8 °F 5.0 °F 19% 30.02 in 10.0 mi East 3.5 mph - N/A   Clear
8:53 PM 44.1 °F 38.1 °F 15.1 °F 31% 30.02 in 10.0 mi SE 11.5 mph - N/A   Clear
9:53 PM 42.1 °F 33.9 °F 24.1 °F 49% 30.03 in 10.0 mi SE 17.3 mph - N/A   Clear
10:53 PM 39.0 °F 32.8 °F 24.1 °F 55% 30.06 in 10.0 mi SSE 9.2 mph - N/A   Clear